Flag for Germany Weather past 2 weeks in Lübeck, Schleswig-Holstein, Germany

Now
55 °F

Partly sunny.


Feels Like: 53 °F
Forecast: 42 / 48 °F
Wind: 8 mph from Southwest

Location: Luebeck-Blankensee

Current Time: Apr 26, 2015 at 12:53:42 PM

Latest Report: Apr 26, 2015 at 12:20 PM


Visibility: N/A

Pressure: 29.71 "Hg

Humidity: 77%

Dew point: 48 °F

Location of LübeckLocation

Historic Weather in Lübeck — Graph

°F

Lübeck temperature yesterday

Maximum temperature yesterday: 61 °F (at 12:20 PM)
Minimum temperature yesterday: 50 °F (at 6:50 AM)
Average temperature yesterday: 56 °F

Past Weeks' High & Low Weather Summary

 TemperatureHumidityPressure
High70 °F (Apr 11, 1:20 PM)100% (Apr 14, 6:50 AM)30.39 "Hg (Apr 14, 6:50 AM)
Low34 °F (Apr 14, 6:50 AM)34% (Apr 20, 2:50 PM)29.68 "Hg (Apr 25, 3:50 PM)
Average52 °F64%30.10 "Hg
* Reported Apr 11 11:20 AM — Apr 26 11:20 AM, Lübeck, Weather by CustomWeather, © 2015

Note: Actual official high and low records may vary slightly from our data, if they occured in-between our weather recording intervals... More about our weather records

Advertising

Lübeck weather history for previous 24 hours

 ConditionsComfort  
Time TempWeatherWind HumidityBarometerVisibility
11:20 AM
Sun, Apr 26
55 °FLight rain. Broken clouds.7 mph82%29.71 "Hg6 mi
10:50 AM54 °FLight rain. Partly sunny.9 mph88%29.71 "Hg4 mi
10:20 AM54 °FPartly sunny.9 mph88%29.71 "Hg4 mi
9:50 AM54 °FFog.6 mph88%29.71 "Hg3 mi
9:20 AM54 °FFog.6 mph88%29.71 "Hg3 mi
8:50 AM52 °FFog.6 mph94%29.71 "Hg2 mi
8:20 AM52 °FFog.7 mph94%29.71 "Hg2 mi
7:50 AM52 °FFog.5 mph94%29.71 "Hg2 mi
7:20 AM50 °FFog.7 mph100%29.71 "Hg2 mi
6:50 AM50 °FFog.5 mph94%29.71 "Hg2 mi
9:50 PM
Sat, Apr 25
54 °FPassing clouds.6 mph94%29.71 "HgN/A
9:20 PM54 °FSunny.6 mph94%29.71 "Hg10 mi
8:50 PM54 °FSunny.7 mph88%29.71 "Hg10 mi
8:20 PM55 °FPassing clouds.7 mph82%29.71 "HgN/A
7:50 PM55 °FSunny.8 mph82%29.68 "Hg10 mi
7:20 PM55 °FScattered clouds.10 mph82%29.68 "HgN/A
6:50 PM55 °FScattered clouds.10 mph82%29.68 "HgN/A
6:20 PM55 °FPartly sunny.10 mph82%29.71 "HgN/A
5:50 PM55 °FLight rain. Broken clouds.12 mph82%29.71 "Hg6 mi
5:20 PM55 °FLight rain. Broken clouds.14 mph88%29.71 "Hg4 mi
4:50 PM55 °FLight rain. Broken clouds.10 mph88%29.68 "Hg4 mi
4:20 PM55 °FLight rain. Broken clouds.10 mph88%29.68 "Hg4 mi
3:50 PM57 °FLight rain. Fog.7 mph88%29.68 "Hg2 mi
3:20 PM55 °FLight rain. Broken clouds.7 mph88%29.71 "Hg4 mi
2:50 PM57 °FLight rain. Clear.6 mph82%29.71 "Hg4 mi
2:20 PM57 °FLight rain. Partly sunny.6 mph82%29.71 "Hg4 mi
1:50 PM57 °FLight rain. Partly sunny.10 mph82%29.71 "Hg3 mi
1:20 PM55 °FLight rain. Broken clouds.16 mph88%29.74 "Hg5 mi
12:50 PM59 °FPartly sunny.14 mph72%29.71 "Hg6 mi
12:20 PM61 °FPartly sunny.13 mph77%29.71 "Hg6 mi
Weather by CustomWeather, © 2015

See weather overviewHow to use our weather pages